TimeCET,TemperatureF,Dew PointF,Humidity,Sea Level PressureIn,VisibilityMPH,Wind Direction,Wind SpeedMPH,Gust SpeedMPH,PrecipitationIn,Events,Conditions,WindDirDegrees,DateUTC
1:00 AM,55,53,92,30.32,,WNW,3.5,,,,,290,2012-12-05 00:00:00
5:00 AM,55.4,53.6,94,30.24,6.2,Variable,2.3,-,N/A,,Mostly Cloudy,0,2012-12-05 04:00:00
5:30 AM,55.4,53.6,94,30.24,6.2,Variable,2.3,-,N/A,,Mostly Cloudy,0,2012-12-05 04:30:00
6:00 AM,55.4,53.6,94,30.24,6.2,Variable,1.2,-,N/A,,Scattered Clouds,0,2012-12-05 05:00:00
6:30 AM,55.4,53.6,94,30.24,6.2,NNW,4.6,-,N/A,,Scattered Clouds,330,2012-12-05 05:30:00
7:00 AM,54,53,96,30.26,12,WNW,5.8,,,,Mostly Cloudy,300,2012-12-05 06:00:00
7:00 AM,55.4,53.6,94,30.24,6.2,WNW,5.8,-,N/A,,Mostly Cloudy,300,2012-12-05 06:00:00
7:30 AM,53.6,50.0,88,30.24,6.2,NW,6.9,-,N/A,,Mostly Cloudy,310,2012-12-05 06:30:00
8:00 AM,53.6,50.0,88,30.24,6.2,WNW,3.5,-,N/A,,Mostly Cloudy,300,2012-12-05 07:00:00
8:30 AM,53.6,50.0,88,30.24,6.2,WNW,3.5,-,N/A,,Mostly Cloudy,290,2012-12-05 07:30:00
9:00 AM,53.6,50.0,88,30.27,6.2,West,3.5,-,N/A,,Mostly Cloudy,270,2012-12-05 08:00:00
9:30 AM,53.6,50.0,88,30.24,6.2,West,3.5,-,N/A,,Mostly Cloudy,270,2012-12-05 08:30:00
10:00 AM,53.6,48.2,82,30.27,6.2,WNW,3.5,-,N/A,,Mostly Cloudy,290,2012-12-05 09:00:00
10:30 AM,55.4,46.4,72,30.27,6.2,NW,6.9,-,N/A,,Mostly Cloudy,310,2012-12-05 09:30:00
11:00 AM,55.4,46.4,72,30.30,6.2,NW,9.2,-,N/A,,Scattered Clouds,310,2012-12-05 10:00:00
11:30 AM,57.2,46.4,67,30.30,6.2,NNW,9.2,-,N/A,,Partly Cloudy,330,2012-12-05 10:30:00
12:00 PM,59.0,42.8,55,30.27,6.2,NNW,8.1,-,N/A,,Partly Cloudy,330,2012-12-05 11:00:00
12:30 PM,59.0,42.8,55,30.27,6.2,NW,5.8,-,N/A,,Partly Cloudy,320,2012-12-05 11:30:00
1:00 PM,59,44,47,30.26,31,NNW,5.8,,,,Scattered Clouds,340,2012-12-05 12:00:00
1:00 PM,59.0,41.0,51,30.24,6.2,North,4.6,-,N/A,,Partly Cloudy,350,2012-12-05 12:00:00
1:30 PM,59.0,41.0,51,30.24,6.2,NNW,4.6,-,N/A,,Partly Cloudy,330,2012-12-05 12:30:00
2:00 PM,59.0,41.0,51,30.24,6.2,Variable,1.2,-,N/A,,Partly Cloudy,0,2012-12-05 13:00:00
4:00 PM,60.8,41.0,48,30.18,-9999.0,Variable,2.3,-,N/A,,Clear,0,2012-12-05 15:00:00
4:30 PM,59.0,41.0,51,30.18,-9999.0,Variable,2.3,-,N/A,,Clear,0,2012-12-05 15:30:00
5:00 PM,59.0,42.8,55,30.21,-9999.0,Variable,1.2,-,N/A,,Clear,0,2012-12-05 16:00:00
5:30 PM,57.2,44.6,63,30.21,-9999.0,Variable,2.3,-,N/A,,Clear,0,2012-12-05 16:30:00
6:00 PM,55.4,46.4,72,30.21,-9999.0,West,4.6,-,N/A,,Clear,280,2012-12-05 17:00:00
6:30 PM,53.6,46.4,77,30.21,-9999.0,WNW,5.8,-,N/A,,Clear,290,2012-12-05 17:30:00
7:00 PM,52,47,79,30.23,31,WNW,5.8,,,,Clear,300,2012-12-05 18:00:00
7:00 PM,51.8,46.4,82,30.21,-9999.0,WNW,5.8,-,N/A,,Clear,300,2012-12-05 18:00:00
7:30 PM,51.8,46.4,82,30.21,-9999.0,NW,3.5,-,N/A,,Clear,310,2012-12-05 18:30:00
8:00 PM,48.2,44.6,87,30.24,-9999.0,Variable,1.2,-,N/A,,Clear,0,2012-12-05 19:00:00
8:30 PM,48.2,46.4,93,30.24,-9999.0,Variable,1.2,-,N/A,,Clear,0,2012-12-05 19:30:00
9:00 PM,48.2,46.4,93,30.24,-9999.0,Variable,1.2,-,N/A,,Clear,0,2012-12-05 20:00:00
9:30 PM,46.4,44.6,93,30.24,-9999.0,Variable,1.2,-,N/A,,Clear,0,2012-12-05 20:30:00
10:00 PM,46.4,44.6,93,30.24,-9999.0,Variable,1.2,-,N/A,,Clear,0,2012-12-05 21:00:00
10:30 PM,46.4,44.6,93,30.21,-9999.0,Variable,1.2,-,N/A,,Clear,0,2012-12-05 21:30:00
11:00 PM,44.6,44.6,100,30.21,-9999.0,Variable,1.2,-,N/A,,Clear,0,2012-12-05 22:00:00